Location: Holyhead Bay
(53.3667°N, 4.6667°W)
Time: 10:15:39
(UTC+00:00)

Cosmos 2360 Rocket - Pass Details

Date: 14 April 2021
Orbit: 833 x 845 km, 71.0° (Epoch: 08 May)

Event Time Altitude Azimuth Distance (km) Brightness Sun altitude
Rises 21:35:07 0° 319° (NW) 3,415 7.1 -18.0°
Reaches altitude 10° 21:38:20 10° 301° (WNW) 2,473 5.8 -18.3°
Maximum altitude 21:41:57 18° 261° (W) 1,981 4.5 -18.7°
Drops below altitude 10° 21:45:33 10° 221° (SW) 2,457 4.5 -19.0°
Enters shadow 21:48:00 - 206° (SSW) 3,148 4.9 -19.2°
